Flag for Austria Weather past 2 weeks in Bischofshofen, Salzburg, Austria

Now
41 °F

Sprinkles. Overcast.


Feels Like: 32 °F
Forecast: 37 / 46 °F
Wind: 20 mph from Northwest

Location: Salzburg-Flughafen

Current Time: Apr 1, 2015 at 3:52:36 AM

Latest Report: Apr 1, 2015 at 3:20 AM


Visibility: 5 mi

Pressure: 29.86 "Hg

Humidity: 76%

Dew point: 34 °F

Location of BischofshofenLocation

Historic Weather in Bischofshofen — Graph

°F

Bischofshofen temperature yesterday

Maximum temperature yesterday: 66 °F (at 1:50 PM)
Minimum temperature yesterday: 39 °F (at 1:20 AM)
Average temperature yesterday: 49 °F

Past Weeks' High & Low Weather Summary

 TemperatureHumidityPressure
High66 °F (Mar 31, 1:50 PM)100% (Mar 19, 2:50 AM)30.24 "Hg (Mar 19, 2:50 AM)
Low28 °F (Mar 20, 3:20 AM)27% (Mar 17, 3:50 PM)29.50 "Hg (Mar 31, 10:50 AM)
Average46 °F70%29.96 "Hg
* Reported Mar 17 1:20 AM — Apr 1 2:50 AM, Bischofshofen, Weather by CustomWeather, © 2015

Note: Actual official high and low records may vary slightly from our data, if they occured in-between our weather recording intervals... More about our weather records

Advertising

Bischofshofen weather history for previous 24 hours

 ConditionsComfort  
Time TempWeatherWind HumidityBarometerVisibility
2:50 AM
Wed, Apr 1
43 °FPartly cloudy.16 mph57%29.86 "HgN/A
2:20 AM39 °FChilly.13 mph75%29.86 "HgN/A
1:50 AM39 °FSprinkles. Passing clouds.25 mph81%29.86 "HgN/A
1:20 AM41 °FSprinkles. Partly cloudy.14 mph76%29.86 "HgN/A
12:50 AM43 °FLight rain. Partly cloudy.22 mph71%29.86 "HgN/A
12:20 AM45 °FPassing clouds.14 mph61%29.86 "HgN/A
11:50 PM
Tue, Mar 31
43 °FPartly cloudy.15 mph66%29.86 "HgN/A
11:20 PM43 °FSprinkles. Partly cloudy.22 mph71%29.86 "HgN/A
10:50 PM45 °FPartly cloudy.20 mph66%29.83 "HgN/A
10:20 PM43 °FSprinkles. Partly cloudy.15 mph76%29.86 "HgN/A
9:50 PM43 °FSprinkles. Partly cloudy.20 mph76%29.86 "HgN/A
9:20 PM45 °FPartly cloudy.15 mph71%29.83 "HgN/A
8:50 PM45 °FThundershowers. Partly cloudy.30 mph76%29.83 "Hg4 mi
8:20 PM48 °FBroken clouds.20 mph66%29.77 "HgN/A
7:50 PM48 °FSprinkles. Broken clouds.23 mph71%29.77 "HgN/A
7:20 PM50 °FSprinkles. Broken clouds.15 mph62%29.71 "HgN/A
6:50 PM48 °FScattered showers. Broken clouds.22 mph71%29.71 "HgN/A
6:20 PM54 °FRain showers. Broken clouds.38 mph58%29.65 "Hg4 mi
5:50 PM54 °FSprinkles. Broken clouds.22 mph67%29.62 "HgN/A
5:20 PM57 °FSprinkles. Broken clouds.29 mph51%29.59 "HgN/A
4:50 PM61 °FBroken clouds.33 mph39%29.56 "HgN/A
4:20 PM61 °FBroken clouds.25 mph45%29.53 "HgN/A
3:50 PM61 °FSprinkles. Broken clouds.31 mph45%29.53 "HgN/A
3:20 PM63 °FBroken clouds.26 mph39%29.53 "HgN/A
2:50 PM63 °FBroken clouds.25 mph42%29.53 "HgN/A
2:20 PM64 °FBroken clouds.26 mph40%29.53 "HgN/A
1:50 PM66 °FBroken clouds.28 mph37%29.50 "HgN/A
1:20 PM64 °FBroken clouds.32 mph40%29.50 "HgN/A
12:50 PM64 °FBroken clouds.25 mph40%29.50 "HgN/A
12:20 PM63 °FBroken clouds.18 mph45%29.50 "HgN/A
11:50 AM52 °FPartly sunny.2 mph67%29.53 "HgN/A
11:20 AM50 °FBroken clouds.5 mph71%29.53 "HgN/A
10:50 AM50 °FBroken clouds.12 mph67%29.50 "HgN/A
10:20 AM48 °FPartly sunny.12 mph71%29.53 "HgN/A
9:50 AM46 °FPartly sunny.12 mph71%29.53 "HgN/A
9:20 AM46 °FBroken clouds.9 mph71%29.56 "HgN/A
8:50 AM45 °FBroken clouds.14 mph76%29.56 "HgN/A
8:20 AM46 °FBroken clouds.12 mph71%29.59 "HgN/A
7:50 AM45 °FBroken clouds.15 mph76%29.59 "HgN/A
7:20 AM45 °FPartly cloudy.14 mph76%29.62 "HgN/A
6:50 AM45 °FPartly cloudy.14 mph76%29.62 "HgN/A
6:20 AM43 °FLight rain. Partly cloudy.17 mph76%29.65 "HgN/A
5:50 AM39 °FLight rain. Partly cloudy.16 mph87%29.68 "HgN/A
5:20 AM39 °FLight rain. Partly cloudy.14 mph93%29.74 "HgN/A
4:50 AM39 °FLight rain. Partly cloudy.10 mph93%29.80 "HgN/A
4:20 AM41 °FLight rain. Partly cloudy.10 mph87%29.83 "HgN/A
3:50 AM41 °FLight rain. Partly cloudy.10 mph87%29.86 "HgN/A
3:20 AM41 °FSprinkles. Passing clouds.9 mph81%29.86 "HgN/A
Weather by CustomWeather, © 2015

See weather overviewHow to use our weather pages